Wind_Speed
23 23 22 21 22 24 26 27 26 25 25 27 28 31 32 32 32 32 30 32 31 32 30 26 25 27 31 36 39 42 45 53 53 47 42 32 31 25 26 32 31 16 16 13 24
27 27 27 27 27 27 27 27 29 29 30 31 30 30 30 32 34 33 34 35 36 35 35 33 31 32 35 37 41 46 54 57 46 41 41 34 45 30 27 30 29 14 13 13 23
30 30 30 29 28 28 29 29 30 31 32 33 33 32 32 32 32 34 39 39 38 39 39 39 36 39 41 39 43 49 58 47 44 45 41 41 36 24 35 37 26 16 6 15 19
34 33 32 30 29 30 30 29 30 31 31 32 34 35 37 34 25 23 27 25 27 30 33 34 40 44 47 46 43 48 50 45 44 46 44 40 33 38 38 39 28 18 8 14 26
37 37 36 36 35 34 33 32 31 31 30 31 32 32 31 27 32 35 38 37 34 32 29 27 29 33 43 45 44 47 47 44 42 43 41 39 41 36 41 39 33 22 12 17 30
41 40 40 39 39 37 36 34 33 28 25 26 29 33 34 24 25 30 31 31 41 49 47 45 40 31 30 38 36 42 42 44 43 42 42 42 43 36 44 39 37 28 14 18 29
41 42 41 41 40 38 35 34 28 21 22 26 29 29 28 22 17 21 19 25 28 27 33 33 35 34 33 36 35 41 36 34 41 42 45 33 44 53 40 39 42 33 19 13 28
40 41 41 40 38 35 33 28 20 19 21 20 22 21 19 18 15 17 24 25 17 19 21 17 18 25 29 21 28 26 32 40 45 42 36 34 56 49 41 42 42 38 27 19 22
38 39 39 39 35 31 28 25 19 17 15 14 22 14 21 20 16 11 14 15 13 15 17 16 18 21 21 27 25 29 34 36 40 22 35 32 56 51 40 41 43 41 35 25 19
39 38 37 36 30 26 24 23 21 16 13 11 22 13 23 27 23 15 10 18 18 17 19 18 21 21 22 27 26 26 19 19 20 21 20 31 52 46 34 39 40 43 39 31 24
38 38 38 33 28 25 23 20 18 11 10 14 18 18 23 24 17 17 14 18 19 16 17 15 21 23 32 28 29 32 24 21 15 19 22 27 36 42 42 41 34 40 44 38 32
37 37 34 31 27 25 26 25 22 16 6 11 13 19 17 22 25 23 18 23 20 23 20 19 26 33 34 23 27 27 30 34 30 21 20 26 36 37 37 44 41 40 36 41 39
37 35 33 28 23 24 24 24 21 23 12 8 11 18 20 19 21 28 24 28 29 20 21 26 30 21 25 28 24 24 28 33 29 30 31 26 38 44 40 45 44 43 36 32 44
36 36 34 26 21 20 19 21 24 23 12 9 9 14 27 18 11 25 27 27 28 20 14 16 15 18 26 25 24 19 18 15 12 15 14 7 11 38 36 42 43 44 42 38 38
34 34 30 30 24 20 19 18 22 21 4 14 8 21 25 21 32 31 22 22 23 18 16 22 16 13 14 25 23 28 24 23 17 18 22 24 14 24 21 37 46 45 45 42 40
33 33 28 28 23 22 22 22 23 9 5 19 12 30 34 22 29 35 24 14 13 14 8 14 18 22 18 21 20 17 19 19 20 21 13 21 17 41 35 40 44 46 44 42 37
33 31 29 27 20 20 23 19 10 5 13 12 34 34 25 26 37 30 23 17 6 10 18 12 5 8 12 17 17 14 15 3 5 6 10 17 18 42 11 33 40 44 44 40 27
34 31 26 21 19 23 21 16 4 5 15 25 31 25 18 32 35 26 26 19 2 9 15 10 6 6 1 3 14 20 22 10 6 5 12 21 11 41 53 37 29 45 44 41 31
35 31 18 18 19 23 15 8 6 11 19 29 31 22 19 34 26 20 26 9 5 8 8 8 9 23 18 20 18 14 24 29 23 17 5 6 8 47 51 45 49 37 43 38 33
39 30 19 21 19 16 13 12 9 15 15 19 24 19 36 34 22 16 18 5 6 9 13 15 21 14 8 8 8 17 9 10 16 5 7 8 12 25 29 40 49 47 46 36 34
39 31 25 22 15 12 13 15 13 7 14 20 24 25 28 26 18 22 11 16 15 16 23 20 13 13 12 10 13 13 22 15 13 14 5 3 7 30 37 29 30 45 45 42 33
39 28 29 16 16 19 17 18 15 15 16 20 19 22 23 25 28 24 12 17 20 20 20 11 9 17 26 23 20 11 13 12 8 6 18 16 27 12 11 22 28 32 39 45 31
41 29 30 18 27 25 18 15 13 15 19 19 21 19 25 28 25 17 19 22 12 12 19 19 9 11 15 1 1 14 21 25 15 26 18 10 8 14 19 32 20 23 27 33 36
40 34 30 18 29 26 25 14 14 16 18 16 16 23 28 34 24 20 22 17 29 28 20 17 20 23 17 16 18 34 31 29 24 16 21 34 28 29 26 20 15 25 26 29 38
37 32 29 30 25 20 18 14 18 23 21 17 21 27 31 35 33 13 35 41 29 12 5 12 19 21 27 31 31 34 38 34 32 35 28 26 32 43 41 26 26 19 22 25 31
34 32 31 28 27 23 13 15 18 22 25 19 24 32 30 32 27 47 38 13 20 11 7 15 15 19 30 23 18 28 30 31 31 31 32 32 34 27 26 25 19 23 19 25 29
34 33 34 32 29 24 18 18 17 25 6 17 25 34 32 36 37 18 10 8 18 20 17 17 16 13 9 21 30 17 15 20 19 22 26 27 23 20 28 23 16 20 23 24 30
Wind_Direction
355 351 345 338 332 325 320 315 310 302 295 290 286 286 285 282 280 278 275 271 266 263 262 255 250 241 236 235 231 230 229 235 238 241 246 244 250 244 243 234 227 222 270 229 225
354 350 343 339 334 328 323 319 314 309 306 302 297 292 288 283 281 280 275 270 263 259 259 255 252 248 239 234 229 227 230 237 244 247 248 251 248 241 237 229 224 214 243 215 221
357 350 346 343 337 333 330 325 318 314 312 309 303 297 289 284 285 277 275 270 265 261 253 250 246 246 241 236 232 232 237 245 248 247 250 251 246 244 238 226 218 213 230 201 224
358 351 346 342 338 334 330 324 318 316 312 306 300 298 296 293 287 271 265 267 259 249 244 243 240 239 241 239 233 236 244 246 249 249 250 254 256 247 239 226 214 209 211 225 210
357 351 349 345 342 337 332 329 327 322 319 315 312 308 304 298 282 273 260 248 241 234 233 239 239 238 241 244 241 241 244 246 249 255 254 255 252 253 235 228 215 209 223 226 199
356 352 348 345 342 340 337 336 338 345 349 353 351 346 339 330 292 272 269 256 244 243 245 246 245 245 244 237 236 245 248 249 248 248 249 249 249 247 220 228 219 214 207 218 204
355 351 348 346 343 341 340 343 353 15 17 13 11 15 18 20 338 292 303 318 263 249 243 244 237 234 238 240 241 244 247 246 243 242 247 247 249 234 229 229 219 209 201 200 200
357 352 349 347 344 341 344 354 4 7 8 14 22 26 32 21 357 330 309 312 323 249 262 220 201 220 231 233 232 238 241 245 243 240 240 235 246 236 234 236 223 207 200 183 205
357 351 348 344 342 341 344 347 349 352 11 18 14 16 11 350 346 326 309 314 334 282 269 259 228 226 221 229 233 227 239 242 245 233 234 230 243 247 235 236 232 213 205 197 204
353 349 345 341 338 337 338 336 335 330 6 8 14 19 0 6 356 330 311 314 316 302 283 251 252 257 247 236 230 231 247 255 251 250 234 236 244 243 238 233 233 227 212 209 204
352 347 342 339 334 333 334 329 331 339 343 14 11 7 350 351 357 355 329 320 327 309 286 245 239 246 247 246 245 248 257 275 245 230 244 232 241 244 244 233 231 226 222 216 212
350 345 342 334 326 329 334 335 338 341 336 356 4 3 342 334 335 336 336 343 323 298 284 268 243 238 240 256 255 257 263 264 272 259 247 257 243 238 234 231 229 225 220 217 217
347 343 339 329 319 324 329 330 328 326 305 314 344 351 338 334 325 335 327 323 327 305 282 278 257 250 244 245 252 255 257 258 269 277 248 274 262 237 232 228 228 226 226 220 216
345 342 335 334 317 314 325 328 332 322 302 302 322 339 346 346 340 342 309 318 322 311 288 282 273 268 250 234 226 250 254 246 263 269 263 228 281 254 247 230 227 225 224 222 214
343 341 335 329 324 302 306 320 326 321 324 329 314 331 336 340 340 350 325 312 312 318 264 257 258 278 243 231 232 251 247 263 266 264 278 260 275 266 248 232 224 224 223 225 229
343 341 336 327 321 308 304 309 318 311 267 331 308 323 336 343 336 334 341 328 302 331 317 296 271 266 255 238 242 245 241 250 264 257 255 245 224 265 244 228 222 224 223 225 228
345 347 335 325 320 311 307 314 295 232 317 315 324 332 334 337 330 340 342 345 335 351 356 357 326 304 250 234 236 226 215 245 233 204 248 240 224 244 234 239 228 225 224 229 233
347 351 336 322 312 322 325 342 266 294 308 311 330 340 332 334 335 342 344 332 259 350 341 333 336 1 91 284 253 238 222 207 199 227 253 243 217 251 243 237 231 227 228 233 227
350 352 346 332 313 322 328 339 312 303 313 321 330 334 326 337 329 334 344 321 266 339 350 328 279 299 282 266 257 243 222 239 243 259 305 255 222 262 254 250 240 228 229 237 235
350 357 345 335 330 329 318 323 303 305 333 322 331 320 319 334 333 324 333 332 309 276 289 314 295 311 287 255 203 237 230 192 206 201 239 239 203 233 254 251 241 243 236 242 236
350 359 354 338 353 339 301 311 309 293 320 322 317 306 323 333 316 321 297 308 277 267 309 308 266 274 264 251 263 244 226 224 211 222 183 225 222 252 255 248 252 243 243 240 241
355 359 356 348 356 340 321 316 299 308 313 324 308 316 330 331 319 313 301 288 297 294 320 308 284 280 287 290 255 219 233 227 218 221 233 248 252 241 279 247 246 246 244 234 238
354 359 358 350 346 341 333 325 300 308 334 318 320 326 331 324 321 301 306 320 315 292 305 306 271 305 318 235 254 229 237 241 270 260 244 207 249 251 249 250 235 237 233 236 231
349 353 357 351 349 333 330 346 334 339 341 322 328 334 332 328 335 303 308 313 313 316 291 275 262 252 244 259 286 287 272 270 271 267 254 233 242 240 241 242 239 240 239 225 226
349 347 349 336 349 338 329 330 336 334 343 348 340 338 340 325 333 322 318 311 312 302 257 233 264 273 273 273 270 264 265 268 260 259 248 257 258 258 246 258 251 246 229 222 216
343 342 340 341 343 341 341 327 331 335 328 352 338 339 344 337 327 317 314 313 300 281 274 257 273 289 289 298 274 267 269 263 257 257 257 269 265 250 236 243 249 233 217 209 209
342 338 335 343 341 343 342 327 334 328 340 344 341 335 348 344 333 319 299 291 269 264 270 275 287 298 276 308 306 281 270 261 257 257 245 242 243 229 224 238 241 227 209 193 198
Height
3137 3133 3129 3125 3121 3117 3113 3110 3107 3106 3104 3102 3100 3097 3096 3095 3094 3093 3092 3089 3089 3087 3088 3092 3092 3091 3090 3090 3092 3093 3089 3081 3084 3091 3093 3100 3103 3107 3106 3106 3111 3119 3122 3126 3128
3134 3130 3125 3121 3117 3114 3110 3106 3103 3100 3096 3093 3092 3090 3089 3086 3086 3085 3084 3081 3079 3080 3081 3083 3085 3083 3082 3083 3083 3081 3075 3072 3084 3088 3090 3094 3096 3101 3102 3103 3107 3113 3114 3115 3121
3131 3127 3122 3117 3113 3108 3105 3100 3096 3093 3090 3086 3083 3082 3080 3078 3078 3075 3071 3069 3069 3070 3070 3071 3073 3073 3072 3074 3073 3071 3062 3076 3077 3081 3087 3087 3091 3094 3093 3094 3103 3107 3107 3109 3116
3128 3123 3119 3115 3110 3105 3100 3095 3090 3087 3082 3078 3074 3072 3068 3070 3072 3063 3062 3063 3060 3058 3060 3061 3061 3060 3061 3062 3067 3065 3064 3070 3073 3077 3079 3082 3087 3084 3086 3088 3098 3101 3102 3103 3109
3124 3118 3113 3108 3103 3098 3094 3089 3085 3079 3075 3071 3066 3062 3060 3063 3056 3052 3052 3053 3052 3051 3052 3055 3053 3053 3052 3057 3061 3058 3058 3063 3068 3070 3073 3078 3075 3078 3075 3084 3091 3096 3097 3098 3102
3119 3113 3107 3102 3096 3090 3086 3081 3076 3071 3067 3062 3058 3054 3052 3051 3048 3043 3039 3040 3039 3040 3043 3044 3047 3049 3047 3047 3051 3050 3054 3057 3060 3061 3064 3068 3068 3073 3066 3077 3083 3089 3092 3094 3099
3116 3109 3103 3097 3091 3086 3081 3076 3071 3067 3063 3059 3054 3051 3046 3046 3044 3038 3035 3034 3032 3032 3033 3035 3037 3038 3039 3043 3045 3044 3045 3047 3048 3053 3055 3063 3058 3048 3066 3070 3075 3082 3088 3090 3096
3115 3107 3100 3095 3089 3083 3078 3074 3070 3066 3060 3057 3053 3050 3046 3045 3043 3041 3037 3036 3032 3030 3028 3030 3030 3031 3032 3036 3038 3038 3037 3037 3041 3046 3049 3058 3038 3049 3061 3063 3067 3075 3083 3087 3092
3115 3107 3100 3094 3088 3083 3077 3073 3068 3064 3059 3055 3052 3048 3046 3044 3039 3036 3033 3030 3030 3030 3028 3028 3027 3026 3028 3030 3032 3030 3027 3029 3035 3039 3042 3046 3030 3041 3055 3056 3062 3069 3076 3082 3086
3113 3107 3100 3093 3087 3082 3078 3072 3068 3063 3058 3053 3050 3049 3045 3041 3036 3032 3030 3028 3026 3025 3025 3025 3025 3023 3024 3024 3020 3022 3024 3027 3029 3036 3038 3038 3028 3039 3048 3053 3056 3065 3071 3076 3081
3111 3105 3097 3090 3084 3079 3076 3074 3071 3063 3057 3053 3051 3048 3043 3040 3037 3032 3029 3026 3023 3022 3020 3020 3020 3018 3018 3020 3021 3021 3021 3023 3025 3029 3028 3027 3025 3031 3039 3043 3048 3055 3064 3071 3076
3108 3103 3095 3089 3082 3077 3072 3068 3064 3063 3058 3053 3050 3046 3042 3038 3033 3030 3027 3023 3019 3015 3015 3015 3009 3009 3013 3016 3018 3019 3018 3017 3021 3025 3025 3022 3017 3020 3028 3032 3037 3045 3055 3063 3069
3106 3099 3094 3086 3081 3076 3071 3068 3063 3059 3056 3052 3048 3046 3041 3039 3032 3026 3022 3019 3013 3008 3008 3005 3002 3007 3007 3009 3012 3014 3014 3016 3020 3021 3017 3020 3010 3010 3017 3023 3029 3034 3044 3053 3060
3103 3095 3088 3085 3081 3076 3071 3065 3061 3056 3051 3050 3047 3044 3040 3035 3032 3026 3020 3015 3009 3003 3003 2999 2999 3000 3000 3002 3006 3008 3011 3013 3015 3017 3014 3019 3007 3002 3009 3015 3021 3026 3034 3042 3049
3099 3091 3084 3075 3075 3072 3070 3064 3060 3055 3053 3048 3043 3041 3039 3035 3026 3021 3015 3010 3004 2999 2999 2995 2995 2996 2995 2996 3001 3002 3007 3010 3012 3011 3012 3014 3016 2991 3000 3006 3013 3019 3026 3035 3042
3094 3087 3081 3075 3071 3067 3064 3060 3057 3055 3046 3044 3041 3037 3031 3029 3024 3016 3010 3006 3001 2996 2993 2989 2990 2990 2991 2993 2997 2999 3002 3005 3005 3008 3004 3006 3012 2977 2992 2997 3006 3013 3021 3029 3035
3091 3084 3076 3070 3068 3063 3061 3057 3055 3049 3047 3042 3035 3033 3029 3024 3017 3012 3006 3002 2998 2994 2991 2987 2985 2985 2985 2988 2992 2993 2997 3000 3002 3001 2992 3000 3004 2980 2985 2994 3003 3008 3016 3021 3029
3088 3081 3073 3067 3064 3060 3057 3054 3051 3048 3043 3038 3034 3029 3026 3020 3012 3007 3004 3000 2997 2995 2992 2989 2986 2984 2984 2985 2987 2988 2991 2991 2995 2990 2985 2990 2988 2971 2981 2989 2993 2999 3006 3012 3021
3084 3077 3071 3065 3062 3058 3055 3052 3050 3046 3041 3035 3028 3023 3021 3019 3014 3006 3002 2997 2996 2995 2995 2990 2984 2981 2980 2980 2983 2979 2982 2984 2988 2987 2985 2980 2979 2973 2975 2980 2986 2990 2995 3001 3011
3080 3074 3068 3064 3058 3055 3053 3050 3047 3045 3039 3035 3030 3025 3016 3013 3010 3006 3000 2998 2995 2994 2992 2990 2979 2975 2975 2975 2975 2975 2978 2980 2982 2983 2979 2974 2975 2968 2966 2972 2978 2983 2986 2992 3001
3076 3070 3066 3059 3057 3053 3050 3047 3044 3042 3039 3034 3029 3023 3018 3011 3007 3004 2999 2997 2992 2991 2989 2986 2982 2974 2974 2971 2971 2972 2972 2971 2973 2972 2972 2971 2967 2960 2961 2966 2971 2976 2980 2986 2993
3074 3067 3063 3057 3056 3052 3047 3042 3041 3038 3036 3031 3025 3021 3015 3010 3004 3000 2996 2994 2991 2987 2985 2983 2977 2971 2967 2965 2967 2967 2967 2965 2965 2966 2963 2963 2955 2956 2955 2960 2965 2968 2972 2980 2985
3069 3066 3060 3055 3051 3045 3045 3040 3037 3035 3031 3026 3022 3018 3012 3008 3002 2994 2991 2989 2986 2984 2982 2981 2975 2970 2964 2962 2960 2960 2961 2961 2961 2962 2956 2958 2945 2950 2951 2957 2961 2964 2967 2973 2980
3067 3062 3057 3053 3049 3042 3037 3037 3034 3032 3028 3024 3018 3014 3009 3002 2999 2990 2986 2982 2980 2977 2975 2976 2969 2968 2965 2960 2959 2957 2956 2956 2959 2956 2950 2940 2944 2946 2951 2953 2956 2958 2961 2968 2977
3066 3062 3058 3053 3049 3044 3037 3033 3030 3025 3024 3020 3014 3011 3005 2996 2988 2984 2982 2978 2974 2970 2969 2969 2965 2962 2957 2953 2952 2948 2944 2945 2947 2945 2942 2937 2938 2936 2943 2948 2950 2952 2956 2962 2971
3065 3060 3056 3050 3045 3039 3035 3032 3029 3025 3022 3016 3013 3006 3001 2994 2990 2977 2975 2972 2969 2967 2966 2964 2960 2956 2948 2943 2940 2937 2934 2933 2932 2933 2932 2930 2923 2925 2934 2941 2943 2945 2949 2956 2965
3061 3056 3051 3048 3042 3036 3033 3029 3026 3022 3019 3015 3010 3003 2995 2989 2981 2972 2968 2966 2964 2963 2963 2961 2958 2954 2942 2938 2931 2926 2920 2920 2920 2923 2925 2921 2919 2924 2928 2934 2936 2938 2944 2952 2960